[[{"header":{"parameterUnit":"m.s-1","parameterCategory":1,"la1":30.2991,"la2":30.254,"lo1":-89.0895,"lo2":-89.0444,"dy":0.0017,"dx":0.0017,"nx":28,"ny":28,"refTime":"2025-11-13T09:00:00:Z","depth":0,"parameterNumber":2,"parameterNumberName":"U-component_of_WINDS"},"data":[0,0,0,0,0,0,0,0,0,0,0,0,0,0,0,0,0,0,0,0,0,0,0,0,0,0,0,0,0,0,0,0,0,0,0,0,0,0,0,0,0,0,0,0,0,0,0,0,0,0,0,0,0,0,0,0,0,0,-0.6579,-0.6578,0,-0.6481,-0.6479,-0.6478,-0.6418,-0.6418,-0.6418,-0.6417,-0.6314,-0.6312,-0.631,0,0,0,0,0,0,0,0,0,0,0,0,0,-0.6714,-0.6712,-0.6579,-0.6578,-0.6576,-0.6481,-0.6479,-0.6478,-0.6418,-0.6418,-0.6418,-0.6417,-0.6315,-0.6312,-0.6309,0,0,0,0,0,0,0,0,0,0,0,0,0,-0.6639,-0.6711,-0.6579,-0.6535,-0.653,-0.6481,-0.6479,-0.6478,-0.6418,-0.6418,-0.6417,-0.6417,-0.6316,-0.6313,-0.6309,-0.6295,0,0,-0.6298,-0.6296,0,0,0,0,0,0,0,0,-0.6644,-0.6634,-0.6543,-0.6538,-0.6532,-0.6461,-0.6489,-0.6416,-0.6418,-0.6461,-0.6417,-0.6417,-0.6363,-0.6356,-0.6338,-0.629,-0.6286,-0.6297,-0.6295,-0.6293,-0.6292,0,0,0,0,0,0,0,-0.6649,-0.6638,-0.654,-0.6542,-0.6535,-0.652,-0.6509,-0.6475,-0.6416,-0.6457,-0.6452,-0.6442,-0.6361,-0.6342,-0.6335,-0.6284,-0.6297,-0.6294,-0.6292,-0.629,-0.6222,-0.6222,0,0,0,0,0,0,-0.6661,-0.6643,-0.6543,-0.6537,-0.6588,-0.6518,-0.6506,-0.6484,-0.6416,-0.6405,-0.6442,-0.6439,-0.6349,-0.634,-0.6332,-0.6312,-0.6293,-0.629,-0.6288,-0.6222,-0.6222,-0.6222,0,0,0,0,0,0,-0.6664,-0.6653,-0.6547,-0.6589,-0.6574,-0.6516,-0.6493,-0.6483,-0.6464,-0.6405,-0.6394,-0.6434,-0.6348,-0.6337,-0.6305,-0.6308,-0.6288,-0.6285,-0.6221,-0.6222,-0.6222,-0.6272,0,0,0,0,0,0,-0.6668,-0.6654,-0.6648,-0.6589,-0.6572,-0.6522,-0.6493,-0.6481,-0.6458,-0.6454,-0.6394,-0.6384,-0.6347,-0.6311,-0.6302,-0.6302,-0.6282,-0.6221,-0.6221,-0.6222,-0.627,-0.6274,-0.6278,0,0,0,0,0,-0.6673,-0.6665,-0.6648,-0.6637,-0.6564,-0.6523,-0.6513,-0.6471,-0.6459,-0.6452,-0.6415,-0.6386,-0.6309,-0.6308,-0.6297,-0.6297,-0.622,-0.6221,-0.6222,-0.6268,-0.6274,-0.6278,0,0,0,0,0,0,-0.6725,-0.6657,-0.6637,-0.661,-0.6573,-0.6513,-0.6503,-0.6477,-0.6442,-0.6439,-0.6387,-0.6374,-0.6348,-0.6319,-0.632,-0.6281,-0.6261,-0.626,-0.63,-0.6305,-0.6309,-0.6316,-0.6279,0,0,0,0,0,-0.6734,-0.6707,-0.6648,-0.6629,-0.6612,-0.6561,-0.6542,-0.6513,-0.6472,-0.6455,-0.6415,-0.6376,-0.6343,-0.6322,-0.6289,-0.6266,-0.6253,-0.626,-0.6264,-0.6268,-0.6267,-0.6255,-0.6258,-0.6225,-0.6225,-0.6225,0,0,-0.675,-0.6709,-0.6695,-0.6639,-0.6607,-0.658,-0.6548,-0.652,-0.65,-0.6451,-0.6419,-0.6389,-0.6342,-0.6315,-0.6301,-0.629,-0.6274,-0.6269,-0.6272,-0.627,-0.6256,-0.6259,-0.6262,-0.6226,-0.6226,-0.6226,0,0,-0.6766,-0.6733,-0.6715,-0.6684,-0.6636,-0.6603,-0.6599,-0.6543,-0.6521,-0.6489,-0.6452,-0.6427,-0.6371,-0.634,-0.6317,-0.6325,-0.6298,-0.6315,-0.6336,-0.6324,-0.6327,-0.6329,-0.6333,-0.6335,-0.6315,-0.6315,-0.6315,0,-0.6793,-0.6751,-0.6708,-0.6683,-0.666,-0.6616,-0.6598,-0.6569,-0.6513,-0.6498,-0.6487,-0.6417,-0.6382,-0.6349,-0.6351,-0.6333,-0.6327,-0.6321,-0.633,-0.6332,-0.6333,-0.6336,-0.6338,-0.6317,-0.6317,-0.6317,-0.6317,0,-0.6787,-0.6759,-0.6749,-0.6698,-0.6674,-0.6652,-0.6606,-0.6587,-0.656,-0.6529,-0.6497,-0.6454,-0.6412,-0.6402,-0.6375,-0.6365,-0.636,-0.634,-0.632,-0.6339,-0.6341,-0.6342,-0.6321,-0.632,-0.6319,-0.6319,0,0,-0.6831,-0.6758,-0.6755,-0.6732,-0.6678,-0.6655,-0.6632,-0.6592,-0.6577,-0.6541,-0.652,-0.6476,-0.6458,-0.6432,-0.6401,-0.6391,-0.6402,-0.6373,-0.6371,-0.638,-0.639,-0.6405,-0.6407,-0.6384,-0.6384,-0.6384,-0.6394,0,-0.684,-0.6797,-0.6759,-0.673,-0.6704,-0.6663,-0.6644,-0.6608,-0.6579,-0.6552,-0.6519,-0.6489,-0.6467,-0.6451,-0.6439,-0.6403,-0.6403,-0.6402,-0.6365,-0.6364,-0.6378,-0.6408,-0.6423,-0.6434,-0.6394,-0.6394,-0.6394,0,-0.6843,-0.6811,-0.678,-0.673,-0.6718,-0.6701,-0.6662,-0.6638,-0.6597,-0.6577,-0.6549,-0.6518,-0.6493,-0.6476,-0.6441,-0.6441,-0.6424,-0.6404,-0.6403,-0.6398,-0.638,-0.6404,-0.6436,-0.6438,-0.6395,-0.6395,-0.6395,0,-0.688,-0.6828,-0.6803,-0.6784,-0.6726,-0.6715,-0.669,-0.6649,-0.6628,-0.6595,-0.6581,-0.6544,-0.6524,-0.6497,-0.6458,-0.6449,-0.6427,-0.6406,-0.6409,-0.641,-0.6406,-0.6406,-0.6437,-0.6395,-0.6395,-0.6395,-0.6395,0,-0.6894,-0.6877,-0.6819,-0.6804,-0.6784,-0.6741,-0.6722,-0.6693,-0.6658,-0.6637,-0.6599,-0.658,-0.6529,-0.6503,-0.6472,-0.6449,-0.644,-0.6422,-0.6414,-0.6426,-0.6428,-0.6413,-0.6412,-0.6395,-0.6395,-0.6395,-0.6395,0,-0.6931,-0.6891,-0.6862,-0.681,-0.6796,-0.6784,-0.6739,-0.6723,-0.6692,-0.6666,-0.6657,-0.6609,-0.6577,-0.6536,-0.6491,-0.647,-0.645,-0.6437,-0.6464,-0.646,-0.6465,-0.6465,-0.6487,-0.6488,-0.6446,-0.6446,-0.6446,0,-0.6942,-0.6928,-0.6875,-0.6859,-0.6836,-0.681,-0.6789,-0.6746,-0.6726,-0.6681,-0.6671,-0.6637,-0.6608,-0.656,-0.652,-0.6486,-0.6473,-0.6483,-0.6467,-0.648,-0.6474,-0.6475,-0.6474,-0.6486,-0.6487,-0.6487,-0.6488,0,-0.6967,-0.6948,-0.692,-0.6886,-0.6863,-0.6834,-0.6803,-0.6792,-0.6743,-0.6722,-0.6691,-0.6668,-0.6624,-0.6591,-0.6553,-0.6527,-0.65,-0.6494,-0.6492,-0.6504,-0.652,-0.6512,-0.6475,-0.6493,-0.6492,-0.6492,-0.6492,-0.6492,-0.6991,-0.6978,-0.6939,-0.691,-0.6883,-0.6855,-0.6838,-0.6807,-0.678,-0.6741,-0.6717,-0.6687,-0.6649,-0.6595,-0.6571,-0.6547,-0.6536,-0.6534,-0.6533,-0.6534,-0.6538,-0.6525,-0.6539,-0.6539,-0.6539,-0.6539,-0.6539,0,-0.7014,-0.6988,-0.6962,-0.6921,-0.6898,-0.6876,-0.6841,-0.6824,-0.6798,-0.6765,-0.6738,-0.6703,-0.6672,-0.6631,-0.6597,-0.6586,-0.6573,-0.6578,-0.6579,-0.6574,-0.6549,-0.6554,-0.659,-0.659,-0.659,-0.659,-0.659,-0.659,-0.7024,-0.7001,-0.6978,-0.6942,-0.6916,-0.6887,-0.6869,-0.6844,-0.6818,-0.6781,-0.6755,-0.6729,-0.6694,-0.6657,-0.6628,-0.6617,-0.6607,-0.6616,-0.6602,-0.658,-0.6575,-0.6571,-0.6575,-0.6614,-0.6614,-0.6628,-0.6628,-0.6628]},{"header":{"parameterUnit":"m.s-1","parameterCategory":1,"la1":30.2991,"la2":30.254,"lo1":-89.0895,"lo2":-89.0444,"dy":0.0017,"dx":0.0017,"nx":28,"ny":28,"refTime":"2025-11-13T09:00:00:Z","depth":0,"parameterNumber":3,"parameterNumberName":"V-component_of_WINDS"},"data":[0,0,0,0,0,0,0,0,0,0,0,0,0,0,0,0,0,0,0,0,0,0,0,0,0,0,0,0,0,0,0,0,0,0,0,0,0,0,0,0,0,0,0,0,0,0,0,0,0,0,0,0,0,0,0,0,0,0,1.9712,1.9712,0,1.9672,1.9671,1.9671,1.9666,1.9666,1.9667,1.9667,1.9621,1.9619,1.9617,0,0,0,0,0,0,0,0,0,0,0,0,0,1.978,1.9779,1.9712,1.9712,1.9711,1.9672,1.9671,1.9671,1.9666,1.9666,1.9667,1.9667,1.9621,1.9619,1.9617,0,0,0,0,0,0,0,0,0,0,0,0,0,1.9746,1.9779,1.9712,1.9704,1.9703,1.9672,1.9671,1.967,1.9666,1.9666,1.9667,1.9668,1.9622,1.9619,1.9617,1.959,0,0,1.961,1.9609,0,0,0,0,0,0,0,0,1.9748,1.9744,1.9706,1.9705,1.9704,1.9675,1.9678,1.9643,1.9666,1.968,1.9667,1.9668,1.9638,1.9634,1.9625,1.9587,1.9585,1.9609,1.9608,1.9607,1.9606,0,0,0,0,0,0,0,1.975,1.9745,1.9696,1.9705,1.9704,1.9701,1.9697,1.9671,1.9656,1.9679,1.9678,1.9674,1.9637,1.9627,1.9624,1.9585,1.9609,1.9607,1.9606,1.9605,1.9519,1.9519,0,0,0,0,0,0,1.9755,1.9747,1.9697,1.9695,1.9728,1.9699,1.9695,1.9683,1.9656,1.9653,1.9673,1.9674,1.9631,1.9627,1.9622,1.9586,1.9607,1.9605,1.9603,1.952,1.9519,1.9518,0,0,0,0,0,0,1.9757,1.9751,1.9699,1.9721,1.9714,1.9697,1.9685,1.9682,1.9672,1.9652,1.9649,1.9666,1.9631,1.9626,1.9597,1.9584,1.9604,1.9601,1.9521,1.952,1.9519,1.9515,0,0,0,0,0,0,1.9759,1.9751,1.9742,1.9721,1.9713,1.9677,1.9684,1.9681,1.9669,1.9669,1.9645,1.9641,1.9632,1.9601,1.9595,1.9581,1.9599,1.9522,1.9521,1.9519,1.9516,1.9514,1.9512,0,0,0,0,0,1.9761,1.9742,1.9742,1.9736,1.9702,1.9676,1.9671,1.9662,1.9668,1.9657,1.9644,1.9642,1.9587,1.9598,1.9591,1.9577,1.9523,1.9521,1.9519,1.9517,1.9514,1.9512,0,0,0,0,0,0,1.9761,1.9739,1.9738,1.9713,1.9696,1.9675,1.9662,1.966,1.964,1.9641,1.9629,1.9623,1.9595,1.9583,1.9596,1.9547,1.9555,1.9552,1.9556,1.9553,1.9551,1.9554,1.9597,0,0,0,0,0,1.9758,1.9741,1.9722,1.9701,1.9693,1.9679,1.9668,1.9662,1.9644,1.9636,1.9621,1.9602,1.958,1.9566,1.9546,1.9515,1.9508,1.9501,1.9499,1.9498,1.9494,1.9474,1.947,1.9512,1.9512,1.9512,0,0,1.9752,1.9738,1.9728,1.9701,1.9688,1.9668,1.9673,1.9653,1.9637,1.9633,1.9605,1.9593,1.9571,1.9541,1.9527,1.953,1.9481,1.9495,1.9494,1.9492,1.9472,1.9468,1.9464,1.9511,1.9511,1.9512,0,0,1.973,1.9719,1.9699,1.9686,1.9666,1.9656,1.9651,1.963,1.9622,1.9595,1.959,1.9571,1.9535,1.9518,1.9505,1.9476,1.9472,1.9469,1.9457,1.9438,1.9435,1.9432,1.9418,1.9414,1.9466,1.9466,1.9466,0,1.9724,1.9696,1.9689,1.9668,1.9655,1.9652,1.963,1.9617,1.959,1.9581,1.9585,1.9538,1.9523,1.9488,1.9481,1.9471,1.9463,1.9471,1.9436,1.9433,1.943,1.9417,1.9413,1.9466,1.9466,1.9466,1.9466,0,1.9689,1.9669,1.9655,1.9631,1.9617,1.9596,1.9583,1.9569,1.9564,1.9553,1.9524,1.9506,1.948,1.9471,1.9466,1.9434,1.9437,1.9439,1.9446,1.9426,1.9413,1.9409,1.9465,1.9466,1.9466,1.9466,0,0,1.9666,1.9637,1.9632,1.962,1.9597,1.9581,1.9558,1.9535,1.9522,1.9503,1.9482,1.9451,1.9452,1.9438,1.943,1.9414,1.9388,1.9418,1.9417,1.9411,1.9349,1.9346,1.9341,1.9387,1.9386,1.9385,1.935,0,1.964,1.9602,1.9593,1.9559,1.954,1.9535,1.9515,1.9498,1.9487,1.9467,1.9454,1.9431,1.9436,1.9427,1.941,1.9395,1.9375,1.9398,1.9364,1.9363,1.9368,1.9335,1.9332,1.93,1.9345,1.9345,1.9344,0,1.9604,1.9586,1.955,1.9528,1.952,1.9502,1.9478,1.946,1.9439,1.9432,1.9415,1.9409,1.9383,1.9393,1.9355,1.9371,1.9356,1.9347,1.9345,1.934,1.9351,1.9327,1.929,1.9284,1.9337,1.9338,1.9338,0,1.9588,1.9554,1.9528,1.9518,1.9493,1.948,1.9468,1.9448,1.9434,1.9412,1.9402,1.9378,1.9364,1.9344,1.933,1.9339,1.9293,1.9302,1.9284,1.9284,1.9273,1.9273,1.9231,1.9267,1.9267,1.9267,1.9267,0,1.9559,1.9537,1.952,1.9504,1.9478,1.9468,1.9442,1.943,1.9412,1.9391,1.9386,1.9366,1.9351,1.9328,1.9317,1.9286,1.928,1.9272,1.9269,1.9271,1.9272,1.926,1.9261,1.9266,1.9266,1.9267,1.9267,0,1.9536,1.9525,1.9495,1.9474,1.9467,1.9449,1.9429,1.9411,1.94,1.9374,1.9367,1.9349,1.9322,1.9307,1.9273,1.9265,1.9229,1.9229,1.9237,1.9235,1.9217,1.9218,1.9164,1.9155,1.9199,1.9199,1.9198,0,1.9518,1.95,1.9476,1.9463,1.9451,1.943,1.9415,1.9403,1.9388,1.9362,1.9347,1.932,1.9297,1.9254,1.9236,1.9209,1.9206,1.9189,1.9202,1.9204,1.9202,1.9203,1.92,1.9186,1.9186,1.9185,1.9185,0,1.9485,1.9479,1.9459,1.9436,1.9419,1.94,1.9381,1.937,1.9355,1.9337,1.931,1.9293,1.9258,1.923,1.9201,1.9187,1.9182,1.9181,1.9175,1.9176,1.918,1.9175,1.9228,1.9182,1.9182,1.9183,1.9183,1.9183,1.9462,1.9445,1.9425,1.9402,1.9387,1.9369,1.9351,1.9337,1.9315,1.9287,1.9281,1.9252,1.9228,1.919,1.9174,1.9149,1.9152,1.9144,1.9142,1.9139,1.9137,1.9186,1.9144,1.9144,1.9145,1.9145,1.9145,0,1.9426,1.9413,1.9392,1.9366,1.9347,1.9347,1.9325,1.9308,1.9283,1.9263,1.9241,1.9208,1.9181,1.916,1.9132,1.9115,1.9112,1.9108,1.9108,1.9104,1.9137,1.9144,1.911,1.911,1.9111,1.9111,1.9111,1.9111,1.9406,1.9377,1.9369,1.9332,1.9319,1.9291,1.9278,1.926,1.9244,1.9208,1.9186,1.9173,1.9152,1.9121,1.9095,1.9089,1.9078,1.9073,1.9067,1.9098,1.9102,1.9105,1.9112,1.9071,1.9071,1.9035,1.9034,1.9034]}]]